sat.trackr.live / text

‹ back to catalog

IPERDRONE.0

NORAD 60520 · 2024-149BE

PAYLOAD ACTIVE UNKNOWN

§ Identity

Operator
Country
IT
Launch date
2024-08-16
Launch site
AFWTR
Launch vehicle
Mass (kg)
RCS (m²)

External: N2YO · Heavens-Above · Gunter

§ Orbital elements

Epoch: 2026-09-21T20:07:48.031968Z

Period
90.64 min
Inclination
97.3705°
Eccentricity
0.0005131
Mean motion
15.88680922 rev/d
Perigee alt
302.6 km
Apogee alt
309.4 km
Semi-major
6,684.1 km
B*
7.4114e-4
RAAN
4.1214°
Arg perigee
243.5637°
Mean anomaly
116.5109°
Rev number
11,813

§ Raw data

IPERDRONE.01 60520U 24149BE  26264.83875037  .00205868  17210-4  74114-3 0  99982 60520  97.3705   4.1214 0005131 243.5637 116.5109 15.88680922118134

JSON: /api/v1/satellites/60520 · /tle

For live sub-satellite position, see the globe view (requires WebGL).

§ Visibility from observer

Set your observer location to see the next 7 days of passes ≥ 10°. The values pass through the URL so the page stays shareable.

No JS? Fill the form by hand. The geolocation button needs JavaScript.

§ Radio — SatNOGS DB

ModeDescriptionDownlinkUplink
FM Mode S - Transmitter 2.225 GHz
FSK Mode U - FSK9k6 401.110 MHz

2 transmitters · refreshed weekly from db.satnogs.org